Location: Unspecified
(0.0000°N, 0.0000°E)
Time: 17:24:01
(UTC+00:00)

S-56A Canister/Altair - All Passes

Search period start: 23 September 2019 00:00
Search period end: 03 October 2019 00:00
Orbit: 633 x 2499 km, 38.9° (Epoch: 21 September)

Date Brightness Start Highest point End Pass type
(mag) Time Alt. Az. Time Alt. Az. Time Alt. Az.
23 Sep - 04:21:17 10° SSE 04:25:00 13° SE 04:29:12 10° ESE visible
23 Sep - 06:20:14 10° SW 06:30:05 60° SE 06:43:55 10° ENE daylight
23 Sep - 08:25:02 10° WSW 08:36:31 48° NW 08:50:47 10° NNE daylight
23 Sep - 10:37:20 10° WNW 10:45:23 16° NNW 10:53:39 10° N daylight
23 Sep - 17:11:40 10° NNW 17:18:18 22° NNE 17:23:21 10° ENE daylight
23 Sep - 19:16:05 10° NW 19:23:23 71° SW 19:28:27 10° SE visible
24 Sep - 05:47:48 10° SSW 05:56:53 51° SE 06:09:48 10° ENE daylight
24 Sep - 07:51:53 10° WSW 08:02:55 54° NW 08:17:18 10° NE daylight
24 Sep - 10:02:40 10° WNW 10:11:28 19° NNW 10:20:50 10° N daylight
24 Sep - 16:38:31 10° NNW 16:45:11 20° NNE 16:50:20 10° ENE daylight
24 Sep - 18:42:41 10° NW 18:50:44 89° SW 18:56:09 10° SE visible
25 Sep - 05:15:29 10° SSW 05:23:47 42° SE 05:35:36 10° ENE visible
25 Sep - 07:18:52 10° WSW 07:29:24 61° NW 07:43:44 10° NE daylight
25 Sep - 09:28:21 10° WNW 09:37:37 21° NNW 09:47:50 10° NNE daylight
25 Sep - 16:05:20 10° NNW 16:11:57 18° NNE 16:17:12 10° ENE daylight
25 Sep - 18:09:17 10° NW 18:18:00 75° NE 18:23:45 10° SE visible
25 Sep - 20:18:39 10° WSW 20:21:27 13° SW 20:23:57 10° SSW visible
26 Sep - 04:43:18 10° SSW 04:50:47 35° SE 05:01:15 10° ENE visible
26 Sep - 06:46:01 10° WSW 06:55:58 68° NW 07:10:05 10° NE daylight
26 Sep - 08:54:21 10° WNW 09:03:48 24° NNW 09:14:41 10° NNE daylight
26 Sep - 15:32:07 10° N 15:38:38 17° NNE 15:43:56 10° ENE daylight
26 Sep - 17:35:51 10° NW 17:45:11 63° NE 17:51:18 10° ESE daylight
26 Sep - 19:44:13 10° W 19:48:51 19° SW 19:52:37 10° S visible
27 Sep - 04:11:16 10° S 04:17:51 28° SE 04:26:48 10° E visible
27 Sep - 06:13:17 10° SW 06:22:38 77° NW 06:36:23 10° NE daylight
27 Sep - 08:20:36 10° W 08:30:03 26° NNW 08:41:25 10° NNE daylight
27 Sep - 14:58:53 10° N 15:05:13 16° NNE 15:10:29 10° ENE daylight
27 Sep - 17:02:23 10° NW 17:12:16 54° NE 17:18:46 10° ESE daylight
27 Sep - 19:10:07 10° W 19:16:15 26° SW 19:20:53 10° S visible
28 Sep - 03:39:28 10° S 03:45:00 21° SE 03:52:11 10° E visible
28 Sep - 05:40:39 10° SW 05:49:24 87° NW 06:02:36 10° NE daylight
28 Sep - 07:47:05 10° W 07:56:24 29° NNW 08:08:03 10° NNE daylight
28 Sep - 14:25:40 10° N 14:31:40 14° NNE 14:36:50 10° NE daylight
28 Sep - 16:28:54 10° NW 16:39:15 47° NE 16:46:08 10° ESE daylight
28 Sep - 18:36:10 10° WNW 18:43:37 34° SW 18:48:56 10° SSE visible
29 Sep - 03:07:58 10° S 03:12:10 16° SE 03:17:15 10° E visible
29 Sep - 05:08:08 10° SW 05:16:17 82° SE 05:28:46 10° NE visible
29 Sep - 07:13:46 10° W 07:22:48 32° NNW 07:34:38 10° NNE daylight
29 Sep - 09:29:39 10° NNW 09:32:35 11° NNW 09:35:36 10° N daylight
29 Sep - 13:52:31 10° N 13:58:02 13° NNE 14:02:56 10° NE daylight
29 Sep - 15:55:24 10° NNW 16:06:07 42° NE 16:13:26 10° ESE daylight
29 Sep - 18:02:16 10° WNW 18:10:57 44° SW 18:16:52 10° SSE visible
30 Sep - 02:37:28 10° SSE 02:39:21 11° SE 02:41:24 10° ESE visible
30 Sep - 04:35:44 10° SW 04:43:17 70° SE 04:54:54 10° NE visible
30 Sep - 06:40:37 10° W 06:49:19 35° NNW 07:01:09 10° NNE daylight
30 Sep - 08:54:12 10° NW 08:58:35 12° NNW 09:03:15 10° N daylight
30 Sep - 13:19:28 10° N 13:24:17 12° NNE 13:28:41 10° NE daylight
30 Sep - 15:21:53 10° NNW 15:32:54 38° NE 15:40:37 10° E daylight
30 Sep - 17:28:23 10° WNW 17:38:13 56° SW 17:44:41 10° SSE daylight
01 Oct - 04:03:24 10° SSW 04:10:23 58° SE 04:21:00 10° ENE visible
01 Oct - 06:07:36 10° W 06:15:55 39° NW 06:27:37 10° NNE daylight
01 Oct - 08:19:29 10° NW 08:24:41 13° NNW 08:30:23 10° N daylight
01 Oct - 12:46:38 10° N 12:50:26 11° NNE 12:54:00 10° NE daylight
01 Oct - 14:48:23 10° NNW 14:59:34 34° NNE 15:07:40 10° E daylight
01 Oct - 16:54:32 10° NW 17:05:24 68° SW 17:12:25 10° SE daylight
02 Oct - 03:31:12 10° SSW 03:37:34 46° SE 03:47:03 10° ENE visible
02 Oct - 05:34:44 10° WSW 05:42:36 44° NW 05:54:05 10° NNE daylight
02 Oct - 07:45:13 10° NW 07:50:53 14° NNW 07:57:18 10° N daylight
02 Oct - 12:14:31 10° N 12:16:29 10° NNE 12:18:24 10° NNE daylight
02 Oct - 14:14:54 10° NNW 14:26:08 31° NNE 14:34:35 10° E daylight
02 Oct - 16:20:42 10° NW 16:32:28 81° SW 16:40:03 10° SE daylight
02 Oct - 18:32:20 10° WSW 18:36:22 14° SW 18:39:48 10° SSW visible
